This demonstration page uses our WeatherBlox Daily Observations layout. Learn more.

Left ArrowRight Arrow

44.8408, -93.29828

Hourly Observations for September 24, 2018

Temp ( °F °C ) Dew Point ( °F °C ) Humidity (%) Winds ( mph kmh ) Pressure ( in mb ) Visibility ( mi km ) Precip ( " mm )
12:53 am 00:53 Cloudy 61 16.1 53 11.7 75 75 SSE 13 20 29.94 1014 10 16 0.00 0.00
1:53 am 01:53 Cloudy 60 15.6 52 11.1 75 75 SSE 6 9 29.96 1015 10 16 0.00 0.00
2:53 am 02:53 Cloudy 59 15 52 11.1 78 78 SSE 8 13 29.96 1015 10 16 0.00 0.00
3:53 am 03:53 Cloudy 59 15 51 10.6 75 75 SSE 13 20 29.95 1014 10 16 0.00 0.00
4:53 am 04:53 Partly Cloudy 59 15 51 10.6 75 75 S 12 19 29.95 1014 10 16 0.00 0.00
5:53 am 05:53 Partly Cloudy 59 15 50 10 72 72 SSE 14 22 29.93 1014 10 16 0.00 0.00
6:53 am 06:53 Mostly Cloudy 60 15.6 49 9.4 67 67 SSE 14 22 29.93 1014 10 16 0.00 0.00
7:53 am 07:53 Mostly Cloudy 57 13.9 49 9.4 74 74 SSE 10 17 29.93 1014 10 16 0.00 0.00
8:53 am 08:53 Mostly Cloudy 60 15.6 51 10.6 72 72 S 14 22 29.92 1013 10 16 0.00 0.00
9:53 am 09:53 Mostly Cloudy 63 17.2 52 11.1 68 68 SSE 12 19 29.91 1013 10 16 0.00 0.00
10:53 am 10:53 Mostly Cloudy 68 20 55 12.8 63 63 S 10 17 29.89 1012 10 16 0.00 0.00
11:53 am 11:53 Mostly Cloudy 71 21.7 58 14.4 63 63 SSW 14 22 29.88 1012 10 16 0.00 0.00
12:53 pm 12:53 Mostly Cloudy 74 23.3 58 14.4 57 57 S 16 26 29.85 1011 10 16 0.00 0.00
1:53 pm 13:53 Mostly Cloudy 74 23.3 59 15 60 60 SSW 12 19 29.81 1010 10 16 0.00 0.00
2:53 pm 14:53 Mostly Cloudy 76 24.4 58 14.4 54 54 S 16 26 29.80 1009 10 16 0.00 0.00
3:53 pm 15:53 Cloudy 76 24.4 59 15 56 56 S 13 20 29.79 1009 10 16 0.00 0.00
4:53 pm 16:53 Cloudy 76 24.4 59 15 56 56 S 10 17 29.78 1008 10 16 0.00 0.00
5:53 pm 17:53 Cloudy 75 23.9 60 15.6 60 60 S 8 13 29.77 1008 10 16 0.00 0.00
6:53 pm 18:53 Cloudy 73 22.8 60 15.6 64 64 SSE 5 7 29.75 1008 10 16 0.00 0.00
7:09 pm 19:09 Cloudy 71 21.7 60 15.6 68 68 NW 16 26 29.74 1007 10 16 0.00 0.00
7:16 pm 19:16 Cloudy 70 21.1 59 15 68 68 NW 16 26 29.74 1007 10 16 0.00 0.00
7:53 pm 19:53 Cloudy 67 19.4 59 15 76 76 NNW 10 17 29.79 1009 10 16 0.00 0.00
8:53 pm 20:53 Mostly Cloudy 65 18.3 58 14.4 78 78 NW 7 11 29.81 1009 10 16 0.00 0.00
9:53 pm 21:53 Cloudy with Thunderstorms 64 17.8 58 14.4 81 81 N 13 20 29.83 1010 3 5 0.00 0.03
9:59 pm 21:59 Cloudy with Strong Thunderstorms 61 16.1 59 15 93 93 N 12 19 29.83 1010 2 3 0.08 2.03
10:09 pm 22:09 Cloudy with Heavy Rain 60 15.6 60 15.6 100 100 N 6 9 29.83 1010 3 5 0.22 5.59
10:13 pm 22:13 Cloudy with Rain 60 15.6 60 15.6 100 100 NNE 5 7 29.83 1010 4 6 0.24 6.10
10:39 pm 22:39 Cloudy with Light Rain 60 15.6 60 15.6 100 100 NNW 6 9 29.85 1011 6 10 0.27 6.86
10:53 pm 22:53 Cloudy with Light Rain 60 15.6 60 15.6 100 100 NNW 9 15 29.84 1011 10 16 0.27 6.86
11:28 pm 23:28 Cloudy 60 15.6 59 15 96 96 N 8 13 29.85 1011 10 16 0.00 0.03
11:53 pm 23:53 Cloudy 59 15 59 15 100 100 NW 10 17 29.86 1011 10 16 0.00 0.03

Powered by AerisWeather